{"data":{"norad_id":64842,"intl_designator":"2025-152A","name":"STARLINK-34723","alt_names":[],"object_type":"PAYLOAD","status":"ACTIVE","operator":null,"country":"US","launch_date":"2025-07-19","launch_site_code":"AFWTR","launch_vehicle":null,"mission":null,"orbit_class":"UNKNOWN","rcs_meters":null,"size_class":null,"mass_kg":null,"dimensions":null,"purposes":["comms"],"wikipedia_slug":null,"has_3d_model":false,"image_url":null,"decayed_at":null,"tle_current":{"epoch":"2026-05-25T02:52:21.508032Z","epoch_age_seconds":58676,"freshness":"FRESH","line1":"1 64842U 25152A   26145.11969338  .00002261  00000+0  16069-3 0  9992","line2":"2 64842  97.4509   0.3967 0001863  77.4149 282.7287 15.05656069 46914","mean_motion":15.05656069,"eccentricity":0.0001863,"inclination_deg":97.4509,"raan_deg":0.3967,"arg_perigee_deg":77.4149,"mean_anomaly_deg":282.7287,"bstar":0.00016069,"rev_number":4691,"period_min":95.639371410789,"perigee_km":548.20192066289,"apogee_km":550.78315542877,"semimajor_km":6927.6295380458,"source":"CELESTRAK","updated_at":"2026-05-25T13:38:20.570919Z"}}}